Weather History for KHRO - November, 2012

Change the Weather History Date:

Thursday, November 8, 2012

  Actual Average Record
Temperature  
Mean Temperature 50 °F 52 °F  
Max Temperature 67 °F 62 °F 82 °F (2006)
Min Temperature 33 °F 41 °F 10 °F (1991)
Degree Days  
Heating Degree Days 15 14  
Month to date heating degree days 97 99  
Since 1 July heating degree days 391 364  
Cooling Degree Days 0 0  
Month to date cooling degree days 0 0  
Year to date cooling degree days 1959 1412  
Moisture  
Dew Point 34 °F    
Average Humidity 59    
Maximum Humidity 89    
Minimum Humidity 29    
Precipitation  
Precipitation 0.00 in 0.14 in 2.32 in (2011)
Month to date precipitation 0.04 1.15  
Year to date precipitation 26.36 37.86  
Snow  
Snow 0.00 in 0.00 in T in (1943)
Month to date snowfall 0.0 0.0  
Since 1 July snowfall 0.0 0.1  
Since 1 September snowfall 0.0 0.1  
Snow Depth 0.00 in    
Sea Level Pressure  
Sea Level Pressure 30.11 in    
Wind  
Wind Speed 11 mph (SE)    
Max Wind Speed 20 mph    
Max Gust Speed 24 mph    
Visibility 10 miles    
Events      
T = Trace of Precipitation, MM = Missing Value Source: NWS Daily Summary

Daily Weather History Graph

Daily Weather History Graph

Search for Another Location

Airport or City:

Trip Planner

Search our weather history database for the weather conditions in past years. The results will help you decide how hot, cold, wet, or windy it might be!

Date:

Astronomy

Nov. 08, 2012 Rise Set
Actual Time 6:43 AM CST 5:09 PM CST
Civil Twilight 6:16 AM CST 5:36 PM CST
Nautical Twilight 5:45 AM CST 6:07 PM CST
Astronomical Twilight 5:15 AM CST 6:37 PM CST
Moon 12:49 AM CST (11/8) 1:41 PM CST (11/8)
Length of Visible Light 11h 20m
Length of Day
10h 26m
Waning Crescent, 32% of the Moon is Illuminated
Nov 8
Waning Crescent
Nov 13
New
Nov 20
First Quarter
Nov 28
Full
Dec 6
Last Quarter

Hourly Weather History & Observations

Time (CST) Temp. Windchill Dew Point Humidity Pressure Visibility Wind Dir Wind Speed Gust Speed Precip Events Conditions
12:53 AM 36.0 °F - 30.9 °F 82% 30.17 in 10.0 mi Calm Calm - N/A   Clear
1:53 AM 34.0 °F 31.0 °F 30.0 °F 85% 30.17 in 10.0 mi SE 3.5 mph - N/A   Clear
2:53 AM 35.1 °F 28.6 °F 30.9 °F 85% 30.17 in 10.0 mi SE 8.1 mph - N/A   Clear
3:53 AM 34.0 °F 28.8 °F 30.9 °F 89% 30.17 in 10.0 mi SE 5.8 mph - N/A   Clear
4:53 AM 34.0 °F 26.0 °F 30.9 °F 89% 30.17 in 10.0 mi SE 10.4 mph - N/A   Clear
5:53 AM 35.1 °F 27.9 °F 30.9 °F 85% 30.18 in 10.0 mi SE 9.2 mph - N/A   Clear
6:53 AM 34.0 °F 26.0 °F 30.9 °F 89% 30.18 in 10.0 mi SE 10.4 mph - N/A   Clear
7:53 AM 39.0 °F 31.8 °F 32.0 °F 76% 30.19 in 10.0 mi SE 11.5 mph - N/A   Clear
8:53 AM 46.9 °F - 34.0 °F 61% 30.19 in 10.0 mi SSE 11.5 mph - N/A   Clear
9:53 AM 53.1 °F - 34.0 °F 48% 30.17 in 10.0 mi SE 15.0 mph - N/A   Clear
10:53 AM 57.0 °F - 34.0 °F 42% 30.16 in 10.0 mi SSE 13.8 mph 19.6 mph N/A   Clear
11:53 AM 62.1 °F - 34.0 °F 35% 30.13 in 10.0 mi SE 10.4 mph 18.4 mph N/A   Clear
12:53 PM 64.0 °F - 34.0 °F 33% 30.10 in 10.0 mi SE 11.5 mph - N/A   Clear
1:53 PM 64.9 °F - 33.1 °F 31% 30.08 in 10.0 mi SE 15.0 mph - N/A   Clear
2:53 PM 66.0 °F - 34.0 °F 30% 30.06 in 10.0 mi SE 13.8 mph 19.6 mph N/A   Clear
3:53 PM 64.9 °F - 35.1 °F 33% 30.06 in 10.0 mi SSE 12.7 mph - N/A   Clear
4:53 PM 60.1 °F - 37.0 °F 42% 30.06 in 10.0 mi SE 10.4 mph - N/A   Clear
5:53 PM 55.9 °F - 37.0 °F 49% 30.06 in 10.0 mi SSE 10.4 mph - N/A   Clear
6:53 PM 55.0 °F - 37.0 °F 51% 30.06 in 10.0 mi SE 13.8 mph - N/A   Clear
7:53 PM 53.1 °F - 37.0 °F 55% 30.04 in 10.0 mi SSE 17.3 mph - N/A   Clear
8:53 PM 52.0 °F - 37.9 °F 59% 30.03 in 10.0 mi SSE 11.5 mph - N/A   Clear
9:53 PM 52.0 °F - 37.9 °F 59% 30.04 in 10.0 mi South 11.5 mph - N/A   Clear
10:53 PM 53.1 °F - 39.0 °F 59% 30.03 in 10.0 mi SSE 13.8 mph - N/A   Clear
11:53 PM 52.0 °F - 39.0 °F 61% 30.04 in 10.0 mi SSE 10.4 mph - N/A   Clear